Orbital Elements
Epoch 2022 Jan. 21.0 TT = JDT 2459600.5
T 2022 Apr. 8.47595 TT Rudenko
q 2.4531647 (2000.0) P Q
n 0.10770727 Peri. 38.47123 -0.47386967 -0.83835942
a 4.3749462 Node 81.34067 +0.72536360 -0.54510495
e 0.4392698 Incl. 15.81622 +0.49929469 -0.00375293
P 9.15
From 760 observations 1931 Jan. 13-2022 Jan. 30, mean residual 0".7.
|